Time,TemperatureF,DewpointF,PressureIn,WindDirection,WindDirectionDegrees,WindSpeedMPH,WindSpeedGustMPH,Humidity,HourlyPrecipIn,Conditions,Clouds,dailyrainin,SoftwareType,DateUTC
2013-02-26 00:00:00,31.1,25.0,30.13,ESE,106,0.0,0.0,78,0.00,,---,0.03,VWS V14.01,2013-02-26 05:00:00,
2013-02-26 00:05:00,31.1,25.0,30.13,ESE,107,0.0,0.0,78,0.00,,---,0.00,VWS V14.01,2013-02-26 05:05:00,
2013-02-26 00:10:00,31.0,24.6,30.13,ESE,106,0.0,0.0,77,0.00,,---,0.00,VWS V14.01,2013-02-26 05:10:00,
2013-02-26 00:15:00,30.9,24.5,30.13,ESE,107,0.0,0.0,77,0.00,,---,0.00,VWS V14.01,2013-02-26 05:15:00,
2013-02-26 00:20:00,31.0,24.6,30.13,ESE,106,0.0,0.0,77,0.00,,---,0.00,VWS V14.01,2013-02-26 05:20:00,
2013-02-26 00:25:00,31.0,24.6,30.13,ESE,107,0.0,0.0,77,0.00,,---,0.00,VWS V14.01,2013-02-26 05:25:00,
2013-02-26 00:30:00,31.0,24.6,30.13,ESE,107,0.0,0.0,77,0.00,,---,0.00,VWS V14.01,2013-02-26 05:30:00,
2013-02-26 00:35:00,31.0,24.6,30.13,ESE,106,0.0,0.0,77,0.00,,---,0.00,VWS V14.01,2013-02-26 05:35:00,
2013-02-26 00:40:00,30.9,26.4,30.13,ESE,107,0.0,0.0,83,0.00,,---,0.00,VWS V14.01,2013-02-26 05:40:00,
2013-02-26 00:45:00,30.9,24.5,30.14,ESE,106,0.0,0.0,77,0.00,,---,0.00,VWS V14.01,2013-02-26 05:45:00,
2013-02-26 00:50:00,30.9,24.5,30.14,ESE,107,0.0,0.0,77,0.00,,---,0.00,VWS V14.01,2013-02-26 05:50:00,
2013-02-26 00:55:00,30.9,24.9,30.15,ESE,106,0.0,0.0,78,0.00,,---,0.00,VWS V14.01,2013-02-26 05:55:00,
2013-02-26 01:00:00,30.8,24.8,30.15,ESE,107,0.0,0.0,78,0.00,,---,0.00,VWS V14.01,2013-02-26 06:00:00,
2013-02-26 01:05:00,30.8,24.8,30.15,ESE,107,0.0,0.0,78,0.00,,---,0.00,VWS V14.01,2013-02-26 06:05:00,
2013-02-26 01:10:00,30.8,24.5,30.15,ESE,106,0.0,0.0,77,0.00,,---,0.00,VWS V14.01,2013-02-26 06:10:00,
2013-02-26 01:15:00,30.8,24.8,30.15,ESE,107,0.0,0.0,78,0.00,,---,0.00,VWS V14.01,2013-02-26 06:15:00,
2013-02-26 01:20:00,30.8,24.8,30.15,ESE,107,0.0,0.0,78,0.00,,---,0.00,VWS V14.01,2013-02-26 06:20:00,
2013-02-26 01:25:00,30.9,24.9,30.15,ESE,105,2.0,2.0,78,0.00,,---,0.00,VWS V14.01,2013-02-26 06:25:00,
2013-02-26 01:30:00,30.9,24.9,30.15,East,92,3.0,4.0,78,0.00,,---,0.00,VWS V14.01,2013-02-26 06:30:00,
2013-02-26 01:35:00,30.8,25.1,30.15,East,92,3.0,4.0,79,0.00,,---,0.00,VWS V14.01,2013-02-26 06:35:00,
2013-02-26 01:40:00,30.8,24.8,30.15,East,88,4.0,4.0,78,0.00,,---,0.00,VWS V14.01,2013-02-26 06:40:00,
2013-02-26 01:46:00,30.8,24.8,30.15,East,93,3.0,5.0,78,0.00,,---,0.00,VWS V14.01,2013-02-26 06:46:00,
2013-02-26 01:51:00,30.8,25.1,30.14,East,96,3.0,4.0,79,0.00,,---,0.00,VWS V14.01,2013-02-26 06:51:00,
2013-02-26 01:56:00,30.8,25.1,30.14,East,92,2.0,4.0,79,0.00,,---,0.00,VWS V14.01,2013-02-26 06:56:00,
2013-02-26 02:01:00,30.8,25.1,30.14,East,92,3.0,4.0,79,0.00,,---,0.00,VWS V14.01,2013-02-26 07:01:00,
2013-02-26 02:06:00,30.8,25.1,30.14,East,89,2.0,3.0,79,0.00,,---,0.00,VWS V14.01,2013-02-26 07:06:00,
2013-02-26 02:11:00,30.7,25.0,30.14,ESE,102,2.0,2.0,79,0.00,,---,0.00,VWS V14.01,2013-02-26 07:11:00,
2013-02-26 02:16:00,30.8,25.1,30.14,East,92,2.0,3.0,79,0.00,,---,0.00,VWS V14.01,2013-02-26 07:16:00,
2013-02-26 02:21:00,30.6,24.9,30.14,ENE,64,1.0,3.0,79,0.00,,---,0.00,VWS V14.01,2013-02-26 07:21:00,
2013-02-26 02:26:00,30.4,25.0,30.14,ENE,65,2.0,2.0,80,0.00,,---,0.00,VWS V14.01,2013-02-26 07:26:00,
2013-02-26 02:31:00,30.2,24.8,30.14,ENE,65,2.0,2.0,80,0.00,,---,0.00,VWS V14.01,2013-02-26 07:31:00,
2013-02-26 02:36:00,30.3,24.9,30.14,East,80,3.0,4.0,80,0.00,,---,0.00,VWS V14.01,2013-02-26 07:36:00,
2013-02-26 02:41:00,30.4,24.7,30.14,East,84,3.0,4.0,79,0.00,,---,0.00,VWS V14.01,2013-02-26 07:41:00,
2013-02-26 02:46:00,30.5,24.8,30.14,East,86,3.0,4.0,79,0.00,,---,0.00,VWS V14.01,2013-02-26 07:46:00,
2013-02-26 02:51:00,30.5,24.8,30.14,East,86,2.0,4.0,79,0.00,,---,0.00,VWS V14.01,2013-02-26 07:51:00,
2013-02-26 02:56:00,30.5,24.8,30.14,ESE,103,3.0,3.0,79,0.00,,---,0.00,VWS V14.01,2013-02-26 07:56:00,
2013-02-26 03:01:00,30.5,24.8,30.14,ESE,103,2.0,3.0,79,0.00,,---,0.00,VWS V14.01,2013-02-26 08:01:00,
2013-02-26 03:06:00,30.5,24.8,30.14,ESE,103,2.0,2.0,79,0.00,,---,0.00,VWS V14.01,2013-02-26 08:06:00,
2013-02-26 03:11:00,30.4,24.7,30.14,ESE,103,2.0,3.0,79,0.00,,---,0.00,VWS V14.01,2013-02-26 08:11:00,
2013-02-26 03:16:00,30.3,24.3,30.13,ESE,103,3.0,5.0,78,0.00,,---,0.00,VWS V14.01,2013-02-26 08:16:00,
2013-02-26 03:21:00,30.2,24.2,30.13,ESE,103,2.0,4.0,78,0.00,,---,0.00,VWS V14.01,2013-02-26 08:21:00,
2013-02-26 03:26:00,30.1,24.1,30.12,ESE,107,3.0,4.0,78,0.00,,---,0.00,VWS V14.01,2013-02-26 08:26:00,
2013-02-26 03:31:00,30.1,24.1,30.12,ESE,103,3.0,4.0,78,0.00,,---,0.00,VWS V14.01,2013-02-26 08:31:00,
2013-02-26 03:36:00,30.0,23.7,30.12,ESE,103,1.0,5.0,77,0.00,,---,0.00,VWS V14.01,2013-02-26 08:36:00,
2013-02-26 03:41:00,30.1,23.8,30.12,ESE,103,1.0,3.0,77,0.00,,---,0.00,VWS V14.01,2013-02-26 08:41:00,
2013-02-26 03:46:00,30.2,23.9,30.12,ESE,102,0.0,2.0,77,0.00,,---,0.00,VWS V14.01,2013-02-26 08:46:00,
2013-02-26 03:52:00,30.2,23.9,30.12,ESE,103,1.0,2.0,77,0.00,,---,0.00,VWS V14.01,2013-02-26 08:52:00,
2013-02-26 03:57:00,30.3,23.7,30.12,ESE,103,0.0,0.0,76,0.00,,---,0.00,VWS V14.01,2013-02-26 08:57:00,
2013-02-26 04:02:00,30.2,23.6,30.11,ESE,103,0.0,0.0,76,0.00,,---,0.00,VWS V14.01,2013-02-26 09:02:00,
2013-02-26 04:07:00,30.1,23.5,30.12,ESE,103,2.0,3.0,76,0.00,,---,0.00,VWS V14.01,2013-02-26 09:07:00,
2013-02-26 04:12:00,30.0,23.7,30.11,ESE,103,2.0,3.0,77,0.00,,---,0.00,VWS V14.01,2013-02-26 09:12:00,
2013-02-26 04:17:00,29.8,23.5,30.11,ENE,69,5.0,5.0,77,0.00,,---,0.00,VWS V14.01,2013-02-26 09:17:00,
2013-02-26 04:22:00,29.9,23.9,30.11,East,81,3.0,5.0,78,0.00,,---,0.00,VWS V14.01,2013-02-26 09:22:00,
2013-02-26 04:27:00,30.1,23.8,30.11,ENE,70,3.0,4.0,77,0.00,,---,0.00,VWS V14.01,2013-02-26 09:27:00,
2013-02-26 04:32:00,30.0,23.7,30.11,ENE,74,3.0,5.0,77,0.00,,---,0.00,VWS V14.01,2013-02-26 09:32:00,
2013-02-26 04:37:00,29.9,23.6,30.11,ENE,65,4.0,5.0,77,0.00,,---,0.00,VWS V14.01,2013-02-26 09:37:00,
2013-02-26 04:42:00,29.9,23.9,30.11,ENE,61,3.0,5.0,78,0.00,,---,0.00,VWS V14.01,2013-02-26 09:42:00,
2013-02-26 04:47:00,30.0,23.7,30.11,ENE,72,4.0,6.0,77,0.00,,---,0.00,VWS V14.01,2013-02-26 09:47:00,
2013-02-26 04:52:00,30.0,23.7,30.11,ENE,76,3.0,5.0,77,0.00,,---,0.00,VWS V14.01,2013-02-26 09:52:00,
2013-02-26 04:57:00,30.1,23.8,30.11,East,87,3.0,6.0,77,0.00,,---,0.00,VWS V14.01,2013-02-26 09:57:00,
2013-02-26 05:02:00,30.1,23.8,30.11,East,79,4.0,6.0,77,0.00,,---,0.00,VWS V14.01,2013-02-26 10:02:00,
2013-02-26 05:07:00,30.1,23.8,30.11,East,87,4.0,7.0,77,0.00,,---,0.00,VWS V14.01,2013-02-26 10:07:00,
2013-02-26 05:12:00,30.1,23.8,30.11,East,92,3.0,5.0,77,0.00,,---,0.00,VWS V14.01,2013-02-26 10:12:00,
2013-02-26 05:17:00,30.0,23.7,30.11,ENE,78,4.0,5.0,77,0.00,,---,0.00,VWS V14.01,2013-02-26 10:17:00,
2013-02-26 05:22:00,30.1,23.8,30.11,East,92,2.0,5.0,77,0.00,,---,0.00,VWS V14.01,2013-02-26 10:22:00,
2013-02-26 05:27:00,30.0,23.7,30.11,East,98,4.0,5.0,77,0.00,,---,0.00,VWS V14.01,2013-02-26 10:27:00,
2013-02-26 05:32:00,29.9,23.6,30.11,East,80,4.0,5.0,77,0.00,,---,0.00,VWS V14.01,2013-02-26 10:32:00,
2013-02-26 05:37:00,29.9,23.6,30.11,East,82,5.0,7.0,77,0.00,,---,0.00,VWS V14.01,2013-02-26 10:37:00,
2013-02-26 05:42:00,29.8,23.8,30.10,East,89,5.0,6.0,78,0.00,,---,0.00,VWS V14.01,2013-02-26 10:42:00,
2013-02-26 05:47:00,29.8,23.5,30.10,East,88,7.0,7.0,77,0.00,,---,0.00,VWS V14.01,2013-02-26 10:47:00,
2013-02-26 05:53:00,29.8,23.5,30.10,East,80,5.0,6.0,77,0.00,,---,0.00,VWS V14.01,2013-02-26 10:53:00,
2013-02-26 05:58:00,29.8,23.5,30.10,East,86,6.0,6.0,77,0.00,,---,0.00,VWS V14.01,2013-02-26 10:58:00,
2013-02-26 06:03:00,29.7,23.4,30.10,East,96,5.0,5.0,77,0.00,,---,0.00,VWS V14.01,2013-02-26 11:03:00,
2013-02-26 06:08:00,29.5,23.2,30.10,East,83,4.0,6.0,77,0.00,,---,0.00,VWS V14.01,2013-02-26 11:08:00,
2013-02-26 06:13:00,29.2,22.9,30.10,East,81,5.0,5.0,77,0.00,,---,0.00,VWS V14.01,2013-02-26 11:13:00,
2013-02-26 06:18:00,29.0,22.7,30.10,ENE,71,5.0,6.0,77,0.00,,---,0.00,VWS V14.01,2013-02-26 11:18:00,
2013-02-26 06:23:00,28.7,22.4,30.10,East,80,6.0,6.0,77,0.00,,---,0.00,VWS V14.01,2013-02-26 11:23:00,
2013-02-26 06:28:00,28.4,22.1,30.10,East,82,6.0,7.0,77,0.00,,---,0.00,VWS V14.01,2013-02-26 11:28:00,
2013-02-26 06:33:00,28.2,22.2,30.10,East,82,5.0,6.0,78,0.00,,---,0.00,VWS V14.01,2013-02-26 11:33:00,
2013-02-26 06:38:00,28.0,22.0,30.10,East,79,6.0,6.0,78,0.00,,---,0.00,VWS V14.01,2013-02-26 11:38:00,
2013-02-26 06:43:00,28.0,22.0,30.10,East,84,5.0,7.0,78,0.00,,---,0.00,VWS V14.01,2013-02-26 11:43:00,
2013-02-26 06:48:00,27.9,21.6,30.10,East,90,5.0,7.0,77,0.00,,---,0.00,VWS V14.01,2013-02-26 11:48:00,
2013-02-26 06:53:00,27.7,21.4,30.10,East,88,4.0,5.0,77,0.00,,---,0.00,VWS V14.01,2013-02-26 11:53:00,
2013-02-26 06:58:00,27.5,21.2,30.10,East,87,4.0,6.0,77,0.00,,---,0.00,VWS V14.01,2013-02-26 11:58:00,
2013-02-26 07:03:00,27.4,21.5,30.10,East,85,5.0,6.0,78,0.00,,---,0.00,VWS V14.01,2013-02-26 12:03:00,
2013-02-26 07:08:00,27.3,21.4,30.10,East,86,4.0,6.0,78,0.00,,---,0.00,VWS V14.01,2013-02-26 12:08:00,
2013-02-26 07:13:00,27.3,21.4,30.10,East,87,4.0,6.0,78,0.00,,---,0.00,VWS V14.01,2013-02-26 12:13:00,
2013-02-26 07:19:00,27.2,21.3,30.09,East,84,4.0,5.0,78,0.00,,---,0.00,VWS V14.01,2013-02-26 12:19:00,
2013-02-26 07:24:00,27.1,21.2,30.10,East,82,5.0,5.0,78,0.00,,---,0.00,VWS V14.01,2013-02-26 12:24:00,
2013-02-26 07:29:00,27.0,21.1,30.09,East,86,5.0,5.0,78,0.00,,---,0.00,VWS V14.01,2013-02-26 12:29:00,
2013-02-26 07:34:00,27.0,21.1,30.09,East,86,4.0,5.0,78,0.00,,---,0.00,VWS V14.01,2013-02-26 12:34:00,
2013-02-26 07:39:00,27.0,21.1,30.09,East,86,5.0,6.0,78,0.00,,---,0.00,VWS V14.01,2013-02-26 12:39:00,
2013-02-26 07:44:00,27.0,21.1,30.09,ENE,76,5.0,6.0,78,0.00,,---,0.00,VWS V14.01,2013-02-26 12:44:00,
2013-02-26 07:49:00,27.0,21.1,30.08,ENE,78,4.0,5.0,78,0.00,,---,0.00,VWS V14.01,2013-02-26 12:49:00,
2013-02-26 07:54:00,26.9,21.0,30.08,ENE,78,4.0,5.0,78,0.00,,---,0.00,VWS V14.01,2013-02-26 12:54:00,
2013-02-26 07:59:00,26.8,20.9,30.08,ENE,72,5.0,5.0,78,0.00,,---,0.00,VWS V14.01,2013-02-26 12:59:00,
2013-02-26 08:04:00,26.8,20.9,30.08,ENE,57,4.0,6.0,78,0.00,,---,0.00,VWS V14.01,2013-02-26 13:04:00,
2013-02-26 08:09:00,26.7,20.8,30.08,ENE,75,4.0,7.0,78,0.00,,---,0.00,VWS V14.01,2013-02-26 13:09:00,
2013-02-26 08:14:00,26.8,20.9,30.08,ENE,64,4.0,9.0,78,0.00,,---,0.00,VWS V14.01,2013-02-26 13:14:00,
2013-02-26 08:19:00,26.9,21.0,30.08,ENE,63,4.0,7.0,78,0.00,,---,0.00,VWS V14.01,2013-02-26 13:19:00,
2013-02-26 08:24:00,26.9,21.0,30.08,ENE,68,5.0,7.0,78,0.00,,---,0.00,VWS V14.01,2013-02-26 13:24:00,
2013-02-26 08:29:00,26.8,20.9,30.08,ENE,64,6.0,7.0,78,0.00,,---,0.00,VWS V14.01,2013-02-26 13:29:00,
2013-02-26 08:34:00,26.8,21.2,30.08,ENE,78,6.0,7.0,79,0.00,,---,0.00,VWS V14.01,2013-02-26 13:34:00,
2013-02-26 08:39:00,26.9,21.3,30.09,ENE,71,6.0,7.0,79,0.00,,---,0.00,VWS V14.01,2013-02-26 13:39:00,
2013-02-26 08:44:00,27.1,21.5,30.09,East,87,6.0,9.0,79,0.00,,---,0.00,VWS V14.01,2013-02-26 13:44:00,
2013-02-26 08:49:00,27.4,21.8,30.09,ENE,65,7.0,9.0,79,0.00,,---,0.00,VWS V14.01,2013-02-26 13:49:00,
2013-02-26 08:54:00,27.5,21.9,30.09,ENE,71,6.0,7.0,79,0.00,,---,0.00,VWS V14.01,2013-02-26 13:54:00,
2013-02-26 08:59:00,27.7,22.0,30.09,East,79,6.0,8.0,79,0.00,,---,0.00,VWS V14.01,2013-02-26 13:59:00,
2013-02-26 09:04:00,27.8,22.1,30.09,ENE,64,4.0,7.0,79,0.00,,---,0.00,VWS V14.01,2013-02-26 14:04:00,
2013-02-26 09:09:00,27.9,22.2,30.08,ENE,68,5.0,7.0,79,0.00,,---,0.00,VWS V14.01,2013-02-26 14:09:00,
2013-02-26 09:14:00,28.2,22.2,30.08,ENE,63,6.0,11.0,78,0.00,,---,0.00,VWS V14.01,2013-02-26 14:14:00,
2013-02-26 09:19:00,28.5,22.5,30.08,NE,53,6.0,13.0,78,0.00,,---,0.00,VWS V14.01,2013-02-26 14:19:00,
2013-02-26 09:24:00,28.7,22.7,30.08,ENE,60,5.0,11.0,78,0.00,,---,0.00,VWS V14.01,2013-02-26 14:24:00,
2013-02-26 09:29:00,29.0,23.0,30.08,ENE,65,7.0,11.0,78,0.00,,---,0.00,VWS V14.01,2013-02-26 14:29:00,
2013-02-26 09:34:00,29.2,23.2,30.08,East,79,7.0,10.0,78,0.00,,---,0.00,VWS V14.01,2013-02-26 14:34:00,
2013-02-26 09:39:00,29.5,23.2,30.08,ENE,76,6.0,13.0,77,0.00,,---,0.00,VWS V14.01,2013-02-26 14:39:00,
2013-02-26 09:44:00,29.7,23.4,30.08,East,79,9.0,11.0,77,0.00,,---,0.00,VWS V14.01,2013-02-26 14:44:00,
2013-02-26 09:49:00,30.0,23.7,30.07,ENE,60,11.0,11.0,77,0.00,,---,0.00,VWS V14.01,2013-02-26 14:49:00,
2013-02-26 09:54:00,30.2,23.6,30.07,ENE,69,10.0,13.0,76,0.00,,---,0.00,VWS V14.01,2013-02-26 14:54:00,
2013-02-26 09:59:00,30.5,23.9,30.06,ENE,59,7.0,12.0,76,0.00,,---,0.00,VWS V14.01,2013-02-26 14:59:00,
2013-02-26 10:05:00,30.8,24.5,30.06,NE,52,11.0,16.0,77,0.00,,---,0.00,VWS V14.01,2013-02-26 15:05:00,
2013-02-26 10:10:00,31.0,24.3,30.07,ENE,67,11.0,17.0,76,0.00,,---,0.00,VWS V14.01,2013-02-26 15:10:00,
2013-02-26 10:15:00,31.1,24.8,30.06,East,79,12.0,15.0,77,0.00,,---,0.00,VWS V14.01,2013-02-26 15:15:00,
2013-02-26 10:20:00,31.3,24.9,30.06,ENE,67,16.0,17.0,77,0.00,,---,0.00,VWS V14.01,2013-02-26 15:20:00,
2013-02-26 10:25:00,31.4,25.0,30.05,East,79,17.0,22.0,77,0.00,,---,0.00,VWS V14.01,2013-02-26 15:25:00,
2013-02-26 10:30:00,31.5,25.1,30.05,ENE,57,12.0,16.0,77,0.00,,---,0.00,VWS V14.01,2013-02-26 15:30:00,
2013-02-26 10:35:00,31.7,25.3,30.04,ENE,65,15.0,23.0,77,0.00,,---,0.00,VWS V14.01,2013-02-26 15:35:00,
2013-02-26 10:40:00,31.8,25.4,30.04,East,79,16.0,20.0,77,0.00,,---,0.00,VWS V14.01,2013-02-26 15:40:00,
2013-02-26 10:45:00,31.9,25.5,30.04,ENE,61,12.0,16.0,77,0.00,,---,0.00,VWS V14.01,2013-02-26 15:45:00,
2013-02-26 10:50:00,32.1,25.7,30.04,East,91,22.0,22.0,77,0.00,,---,0.00,VWS V14.01,2013-02-26 15:50:00,
2013-02-26 10:55:00,32.1,25.7,30.04,ENE,75,14.0,20.0,77,0.00,,---,0.00,VWS V14.01,2013-02-26 15:55:00,
2013-02-26 11:00:00,32.3,25.6,30.03,ESE,109,17.0,23.0,76,0.00,,---,0.00,VWS V14.01,2013-02-26 16:00:00,
2013-02-26 11:05:00,32.3,25.6,30.03,ENE,61,17.0,23.0,76,0.00,,---,0.00,VWS V14.01,2013-02-26 16:05:00,
2013-02-26 11:10:00,32.4,26.0,30.03,East,84,14.0,21.0,77,0.00,,---,0.00,VWS V14.01,2013-02-26 16:10:00,
2013-02-26 11:15:00,32.4,26.0,30.03,East,87,14.0,24.0,77,0.00,,---,0.00,VWS V14.01,2013-02-26 16:15:00,
2013-02-26 11:20:00,32.6,25.9,30.02,East,80,17.0,19.0,76,0.00,,---,0.00,VWS V14.01,2013-02-26 16:20:00,
2013-02-26 11:25:00,32.4,25.7,30.02,SE,141,20.0,29.0,76,0.00,,---,0.00,VWS V14.01,2013-02-26 16:25:00,
2013-02-26 11:30:00,32.4,25.7,30.02,East,88,18.0,29.0,76,0.00,,---,0.00,VWS V14.01,2013-02-26 16:30:00,
2013-02-26 11:35:00,32.6,25.9,30.01,ENE,74,25.0,25.0,76,0.00,,---,0.00,VWS V14.01,2013-02-26 16:35:00,
2013-02-26 11:40:00,32.4,25.7,30.01,East,80,18.0,30.0,76,0.00,,---,0.00,VWS V14.01,2013-02-26 16:40:00,
2013-02-26 11:45:00,32.5,26.1,30.00,ENE,72,19.0,24.0,77,0.00,,---,0.00,VWS V14.01,2013-02-26 16:45:00,
2013-02-26 11:50:00,32.7,26.0,30.00,East,89,20.0,24.0,76,0.00,,---,0.00,VWS V14.01,2013-02-26 16:50:00,
2013-02-26 11:55:00,32.6,25.9,29.99,ENE,69,15.0,16.0,76,0.00,,---,0.00,VWS V14.01,2013-02-26 16:55:00,
2013-02-26 12:00:00,32.8,26.1,29.99,East,87,13.0,17.0,76,0.00,,---,0.00,VWS V14.01,2013-02-26 17:00:00,
2013-02-26 12:05:00,33.0,26.3,29.99,ENE,71,21.0,25.0,76,0.00,,---,0.00,VWS V14.01,2013-02-26 17:05:00,
2013-02-26 12:10:00,33.0,26.3,29.98,East,79,19.0,20.0,76,0.00,,---,0.00,VWS V14.01,2013-02-26 17:10:00,
2013-02-26 12:15:00,33.1,26.4,29.97,ENE,78,22.0,22.0,76,0.00,,---,0.00,VWS V14.01,2013-02-26 17:15:00,
2013-02-26 12:20:00,33.1,26.0,29.97,East,84,14.0,14.0,75,0.00,,---,0.00,VWS V14.01,2013-02-26 17:20:00,
2013-02-26 12:25:00,33.1,26.4,29.97,ENE,65,26.0,26.0,76,0.00,,---,0.00,VWS V14.01,2013-02-26 17:25:00,
2013-02-26 12:30:00,33.0,26.3,29.97,East,88,16.0,22.0,76,0.00,,---,0.00,VWS V14.01,2013-02-26 17:30:00,
2013-02-26 12:35:00,33.1,26.4,29.96,ENE,69,20.0,20.0,76,0.00,,---,0.00,VWS V14.01,2013-02-26 17:35:00,
2013-02-26 12:40:00,33.2,26.1,29.96,ENE,76,19.0,21.0,75,0.00,,---,0.00,VWS V14.01,2013-02-26 17:40:00,
2013-02-26 12:45:00,33.2,25.8,29.95,ENE,59,17.0,18.0,74,0.00,,---,0.00,VWS V14.01,2013-02-26 17:45:00,
2013-02-26 12:50:00,33.1,25.7,29.95,ENE,78,18.0,18.0,74,0.00,,---,0.00,VWS V14.01,2013-02-26 17:50:00,
2013-02-26 12:55:00,33.0,25.6,29.94,ENE,63,22.0,24.0,74,0.00,,---,0.00,VWS V14.01,2013-02-26 17:55:00,
2013-02-26 13:00:00,33.1,25.1,29.94,ENE,66,27.0,28.0,72,0.00,,---,0.00,VWS V14.01,2013-02-26 18:00:00,
2013-02-26 13:05:00,33.0,25.0,29.95,ENE,63,24.0,29.0,72,0.00,,---,0.00,VWS V14.01,2013-02-26 18:05:00,
2013-02-26 13:10:00,33.2,25.2,29.94,ENE,69,21.0,25.0,72,0.00,,---,0.00,VWS V14.01,2013-02-26 18:10:00,
2013-02-26 13:15:00,33.2,24.8,29.93,East,80,19.0,26.0,71,0.00,,---,0.00,VWS V14.01,2013-02-26 18:15:00,
2013-02-26 13:20:00,33.3,24.9,29.93,East,82,22.0,29.0,71,0.00,,---,0.00,VWS V14.01,2013-02-26 18:20:00,
2013-02-26 13:25:00,33.2,25.2,29.93,ENE,69,20.0,22.0,72,0.00,,---,0.00,VWS V14.01,2013-02-26 18:25:00,
2013-02-26 13:30:00,33.2,25.2,29.92,NE,55,19.0,28.0,72,0.00,,---,0.00,VWS V14.01,2013-02-26 18:30:00,
2013-02-26 13:35:00,33.3,25.3,29.92,ENE,60,21.0,26.0,72,0.00,,---,0.00,VWS V14.01,2013-02-26 18:35:00,
2013-02-26 13:40:00,33.5,25.8,29.92,ENE,67,17.0,20.0,73,0.00,,---,0.00,VWS V14.01,2013-02-26 18:40:00,
2013-02-26 13:45:00,33.6,25.9,29.92,ENE,60,23.0,29.0,73,0.00,,---,0.00,VWS V14.01,2013-02-26 18:45:00,
2013-02-26 13:50:00,33.4,26.0,29.92,ENE,59,23.0,28.0,74,0.00,,---,0.00,VWS V14.01,2013-02-26 18:50:00,
2013-02-26 13:55:00,33.2,25.8,29.92,ENE,63,14.0,24.0,74,0.00,,---,0.00,VWS V14.01,2013-02-26 18:55:00,
2013-02-26 14:00:00,33.3,25.9,29.92,NE,55,21.0,25.0,74,0.00,,---,0.00,VWS V14.01,2013-02-26 19:00:00,
2013-02-26 14:05:00,33.1,26.0,29.91,NE,37,17.0,20.0,75,0.00,,---,0.00,VWS V14.01,2013-02-26 19:05:00,
2013-02-26 14:10:00,33.3,25.9,29.90,ENE,78,21.0,27.0,74,0.00,,---,0.00,VWS V14.01,2013-02-26 19:10:00,
2013-02-26 14:16:00,33.3,25.9,29.90,East,79,21.0,22.0,74,0.00,,---,0.00,VWS V14.01,2013-02-26 19:16:00,
2013-02-26 14:21:00,33.4,26.0,29.91,ENE,67,21.0,22.0,74,0.00,,---,0.00,VWS V14.01,2013-02-26 19:21:00,
2013-02-26 14:26:00,33.2,26.1,29.91,ENE,69,16.0,24.0,75,0.00,,---,0.00,VWS V14.01,2013-02-26 19:26:00,
2013-02-26 14:31:00,33.2,26.5,29.91,ENE,59,20.0,20.0,76,0.00,,---,0.00,VWS V14.01,2013-02-26 19:31:00,
2013-02-26 14:36:00,33.1,26.4,29.91,East,92,18.0,24.0,76,0.00,,---,0.00,VWS V14.01,2013-02-26 19:36:00,
2013-02-26 14:41:00,33.0,26.3,29.91,ENE,78,25.0,27.0,76,0.00,,---,0.00,VWS V14.01,2013-02-26 19:41:00,
2013-02-26 14:46:00,32.9,26.5,29.91,ESE,108,13.0,19.0,77,0.00,,---,0.00,VWS V14.01,2013-02-26 19:46:00,
2013-02-26 14:51:00,32.8,26.4,29.90,East,86,19.0,25.0,77,0.00,,---,0.00,VWS V14.01,2013-02-26 19:51:00,
2013-02-26 14:56:00,32.7,26.0,29.90,ENE,74,23.0,28.0,76,0.00,,---,0.00,VWS V14.01,2013-02-26 19:56:00,
2013-02-26 15:01:00,32.7,26.3,29.90,ENE,67,15.0,20.0,77,0.00,,---,0.00,VWS V14.01,2013-02-26 20:01:00,
2013-02-26 15:06:00,32.6,26.5,29.90,NE,55,15.0,18.0,78,0.00,,---,0.00,VWS V14.01,2013-02-26 20:06:00,
2013-02-26 15:11:00,32.4,26.3,29.90,ENE,71,18.0,23.0,78,0.00,,---,0.00,VWS V14.01,2013-02-26 20:11:00,
2013-02-26 15:16:00,32.3,26.2,29.90,ENE,63,20.0,27.0,78,0.00,,---,0.00,VWS V14.01,2013-02-26 20:16:00,
2013-02-26 15:21:00,32.2,26.1,29.90,ENE,64,17.0,19.0,78,0.00,,---,0.00,VWS V14.01,2013-02-26 20:21:00,
2013-02-26 15:26:00,32.3,26.2,29.90,ENE,59,16.0,18.0,78,0.00,,---,0.00,VWS V14.01,2013-02-26 20:26:00,
2013-02-26 15:31:00,32.1,25.7,29.90,NE,56,14.0,23.0,77,0.00,,---,0.00,VWS V14.01,2013-02-26 20:31:00,
2013-02-26 15:36:00,32.0,27.4,29.90,ENE,72,21.0,25.0,83,0.00,,---,0.00,VWS V14.01,2013-02-26 20:36:00,
2013-02-26 15:41:00,31.8,25.7,29.89,ENE,71,20.0,29.0,78,0.00,,---,0.00,VWS V14.01,2013-02-26 20:41:00,
2013-02-26 15:46:00,31.8,25.4,29.89,ENE,59,19.0,27.0,77,0.00,,---,0.00,VWS V14.01,2013-02-26 20:46:00,
2013-02-26 15:51:00,31.8,25.4,29.89,ENE,67,21.0,26.0,77,0.00,,---,0.00,VWS V14.01,2013-02-26 20:51:00,
2013-02-26 15:56:00,31.8,25.4,29.89,NE,56,24.0,24.0,77,0.00,,---,0.00,VWS V14.01,2013-02-26 20:56:00,
2013-02-26 16:01:00,31.7,25.6,29.89,ENE,63,23.0,26.0,78,0.00,,---,0.00,VWS V14.01,2013-02-26 21:01:00,
2013-02-26 16:06:00,31.6,25.5,29.89,ENE,60,22.0,27.0,78,0.00,,---,0.00,VWS V14.01,2013-02-26 21:06:00,
2013-02-26 16:11:00,31.5,25.4,29.89,ENE,65,27.0,27.0,78,0.00,,---,0.00,VWS V14.01,2013-02-26 21:11:00,
2013-02-26 16:16:00,31.6,25.2,29.89,ENE,70,21.0,29.0,77,0.00,,---,0.00,VWS V14.01,2013-02-26 21:16:00,
2013-02-26 16:21:00,31.5,25.1,29.88,NE,44,20.0,32.0,77,0.00,,---,0.00,VWS V14.01,2013-02-26 21:21:00,
2013-02-26 16:26:00,31.5,25.1,29.88,ENE,71,19.0,23.0,77,0.00,,---,0.00,VWS V14.01,2013-02-26 21:26:00,
2013-02-26 16:31:00,31.5,24.8,29.88,ENE,61,23.0,31.0,76,0.00,,---,0.00,VWS V14.01,2013-02-26 21:31:00,
2013-02-26 16:36:00,31.5,24.8,29.88,NE,56,22.0,24.0,76,0.00,,---,0.00,VWS V14.01,2013-02-26 21:36:00,
2013-02-26 16:41:00,31.5,24.8,29.87,ENE,67,18.0,26.0,76,0.00,,---,0.00,VWS V14.01,2013-02-26 21:41:00,
2013-02-26 16:46:00,31.5,24.8,29.88,ENE,63,22.0,26.0,76,0.00,,---,0.00,VWS V14.01,2013-02-26 21:46:00,
2013-02-26 16:51:00,31.5,24.8,29.88,ENE,74,26.0,26.0,76,0.00,,---,0.00,VWS V14.01,2013-02-26 21:51:00,
2013-02-26 16:56:00,31.4,25.0,29.88,NE,47,18.0,22.0,77,0.00,,---,0.00,VWS V14.01,2013-02-26 21:56:00,
2013-02-26 17:01:00,31.4,24.7,29.88,ENE,66,20.0,22.0,76,0.00,,---,0.00,VWS V14.01,2013-02-26 22:01:00,
2013-02-26 17:06:00,31.1,25.0,29.88,ENE,57,22.0,22.0,78,0.00,,---,0.00,VWS V14.01,2013-02-26 22:06:00,
2013-02-26 17:11:00,31.0,25.0,29.88,ENE,59,27.0,27.0,78,0.00,,---,0.00,VWS V14.01,2013-02-26 22:11:00,
2013-02-26 17:16:00,31.0,24.6,29.88,ENE,75,21.0,28.0,77,0.00,,---,0.00,VWS V14.01,2013-02-26 22:16:00,
2013-02-26 17:21:00,31.0,24.6,29.88,NE,55,19.0,26.0,77,0.00,,---,0.00,VWS V14.01,2013-02-26 22:21:00,
2013-02-26 17:26:00,30.9,24.9,29.88,ENE,63,25.0,25.0,78,0.00,,---,0.00,VWS V14.01,2013-02-26 22:26:00,
2013-02-26 17:31:00,30.9,24.9,29.88,ENE,59,12.0,24.0,78,0.00,,---,0.00,VWS V14.01,2013-02-26 22:31:00,
2013-02-26 17:36:00,30.8,24.8,29.88,ENE,60,25.0,25.0,78,0.00,,---,0.00,VWS V14.01,2013-02-26 22:36:00,
2013-02-26 17:41:00,30.8,25.1,29.88,NE,46,17.0,26.0,79,0.00,,---,0.00,VWS V14.01,2013-02-26 22:41:00,
2013-02-26 17:46:00,30.8,25.1,29.88,ENE,58,15.0,23.0,79,0.00,,---,0.00,VWS V14.01,2013-02-26 22:46:00,
2013-02-26 17:51:00,30.8,24.8,29.88,ENE,63,26.0,30.0,78,0.00,,---,0.00,VWS V14.01,2013-02-26 22:51:00,
2013-02-26 17:56:00,30.8,24.8,29.87,ENE,68,20.0,30.0,78,0.00,,---,0.00,VWS V14.01,2013-02-26 22:56:00,
2013-02-26 18:01:00,30.9,24.9,29.88,ENE,67,23.0,29.0,78,0.00,,---,0.00,VWS V14.01,2013-02-26 23:01:00,
2013-02-26 18:06:00,30.8,24.8,29.88,ENE,60,20.0,24.0,78,0.00,,---,0.00,VWS V14.01,2013-02-26 23:06:00,
2013-02-26 18:11:00,30.8,24.8,29.88,ENE,65,19.0,21.0,78,0.00,,---,0.00,VWS V14.01,2013-02-26 23:11:00,
2013-02-26 18:16:00,31.0,25.0,29.88,ENE,59,19.0,24.0,78,0.00,,---,0.00,VWS V14.01,2013-02-26 23:16:00,
2013-02-26 18:21:00,30.8,24.8,29.88,ENE,71,19.0,25.0,78,0.00,,---,0.00,VWS V14.01,2013-02-26 23:21:00,
2013-02-26 18:26:00,30.9,24.9,29.88,ENE,69,19.0,26.0,78,0.00,,---,0.00,VWS V14.01,2013-02-26 23:26:00,
2013-02-26 18:31:00,30.9,24.9,29.88,ENE,60,19.0,19.0,78,0.00,,---,0.00,VWS V14.01,2013-02-26 23:31:00,
2013-02-26 18:37:00,30.9,24.9,29.88,ENE,67,17.0,30.0,78,0.00,,---,0.00,VWS V14.01,2013-02-26 23:37:00,
2013-02-26 18:42:00,30.9,24.9,29.88,ENE,74,18.0,23.0,78,0.00,,---,0.00,VWS V14.01,2013-02-26 23:42:00,
2013-02-26 18:47:00,30.9,24.9,29.88,NE,56,14.0,21.0,78,0.00,,---,0.00,VWS V14.01,2013-02-26 23:47:00,
2013-02-26 18:52:00,30.9,24.9,29.89,ENE,59,19.0,20.0,78,0.00,,---,0.00,VWS V14.01,2013-02-26 23:52:00,
2013-02-26 18:57:00,31.0,25.0,29.89,ENE,57,19.0,23.0,78,0.00,,---,0.00,VWS V14.01,2013-02-26 23:57:00,
2013-02-26 19:02:00,31.0,25.0,29.89,ENE,63,17.0,22.0,78,0.00,,---,0.00,VWS V14.01,2013-02-27 00:02:00,
2013-02-26 19:07:00,31.0,25.0,29.89,ENE,59,12.0,25.0,78,0.00,,---,0.00,VWS V14.01,2013-02-27 00:07:00,
2013-02-26 19:12:00,30.9,25.2,29.88,ENE,64,22.0,24.0,79,0.00,,---,0.00,VWS V14.01,2013-02-27 00:12:00,
2013-02-26 19:17:00,30.8,25.1,29.88,NE,53,15.0,26.0,79,0.00,,---,0.00,VWS V14.01,2013-02-27 00:17:00,
2013-02-26 19:22:00,30.7,25.0,29.88,NE,51,15.0,21.0,79,0.00,,---,0.00,VWS V14.01,2013-02-27 00:22:00,
2013-02-26 19:27:00,30.6,25.2,29.88,NE,40,16.0,21.0,80,0.00,,---,0.00,VWS V14.01,2013-02-27 00:27:00,
2013-02-26 19:32:00,30.5,25.1,29.88,NNE,30,14.0,17.0,80,0.00,,---,0.00,VWS V14.01,2013-02-27 00:32:00,
2013-02-26 19:37:00,30.5,25.4,29.88,NE,44,13.0,19.0,81,0.00,,---,0.00,VWS V14.01,2013-02-27 00:37:00,
2013-02-26 19:42:00,30.5,25.4,29.88,NE,46,12.0,20.0,81,0.00,,---,0.00,VWS V14.01,2013-02-27 00:42:00,
2013-02-26 19:47:00,30.5,25.4,29.88,NE,50,18.0,24.0,81,0.00,,---,0.00,VWS V14.01,2013-02-27 00:47:00,
2013-02-26 19:52:00,30.3,25.2,29.88,NE,50,19.0,21.0,81,0.00,,---,0.00,VWS V14.01,2013-02-27 00:52:00,
2013-02-26 19:57:00,30.3,25.2,29.88,NNE,24,22.0,22.0,81,0.00,,---,0.00,VWS V14.01,2013-02-27 00:57:00,
2013-02-26 20:02:00,30.3,25.2,29.87,ENE,58,19.0,22.0,81,0.00,,---,0.00,VWS V14.01,2013-02-27 01:02:00,
2013-02-26 20:07:00,30.3,25.2,29.87,NE,51,18.0,19.0,81,0.00,,---,0.00,VWS V14.01,2013-02-27 01:07:00,
2013-02-26 20:12:00,30.3,25.2,29.86,NE,40,17.0,24.0,81,0.00,,---,0.00,VWS V14.01,2013-02-27 01:12:00,
2013-02-26 20:17:00,30.4,25.3,29.86,NNE,26,15.0,28.0,81,0.00,,---,0.00,VWS V14.01,2013-02-27 01:17:00,
2013-02-26 20:22:00,30.4,25.3,29.86,NE,44,15.0,22.0,81,0.00,,---,0.00,VWS V14.01,2013-02-27 01:22:00,
2013-02-26 20:27:00,30.3,25.2,29.86,NE,44,16.0,22.0,81,0.00,,---,0.00,VWS V14.01,2013-02-27 01:27:00,
2013-02-26 20:32:00,30.2,25.1,29.85,NNE,32,17.0,21.0,81,0.00,,---,0.00,VWS V14.01,2013-02-27 01:32:00,
2013-02-26 20:37:00,30.3,25.2,29.85,NE,53,18.0,22.0,81,0.00,,---,0.00,VWS V14.01,2013-02-27 01:37:00,
2013-02-26 20:42:00,30.3,25.2,29.85,ENE,61,22.0,31.0,81,0.00,,---,0.00,VWS V14.01,2013-02-27 01:42:00,
2013-02-26 20:47:00,30.2,25.1,29.84,NE,55,26.0,27.0,81,0.00,,---,0.00,VWS V14.01,2013-02-27 01:47:00,
2013-02-26 20:52:00,30.3,25.2,29.84,ENE,70,16.0,24.0,81,0.00,,---,0.00,VWS V14.01,2013-02-27 01:52:00,
2013-02-26 20:57:00,30.3,25.2,29.84,NE,55,19.0,27.0,81,0.00,,---,0.00,VWS V14.01,2013-02-27 01:57:00,
2013-02-26 21:03:00,30.3,25.2,29.84,ENE,68,17.0,25.0,81,0.00,,---,0.00,VWS V14.01,2013-02-27 02:03:00,
2013-02-26 21:08:00,30.3,25.2,29.84,ENE,61,17.0,25.0,81,0.00,,---,0.00,VWS V14.01,2013-02-27 02:08:00,
2013-02-26 21:13:00,30.2,25.1,29.84,NE,45,19.0,20.0,81,0.00,,---,0.00,VWS V14.01,2013-02-27 02:13:00,
2013-02-26 21:18:00,30.3,25.2,29.83,NNE,31,22.0,23.0,81,0.00,,---,0.00,VWS V14.01,2013-02-27 02:18:00,
2013-02-26 21:23:00,30.3,25.2,29.83,ENE,64,24.0,24.0,81,0.00,,---,0.00,VWS V14.01,2013-02-27 02:23:00,
2013-02-26 21:28:00,30.3,25.2,29.83,NE,55,15.0,22.0,81,0.00,,---,0.00,VWS V14.01,2013-02-27 02:28:00,
2013-02-26 21:33:00,30.3,25.2,29.83,ENE,57,19.0,25.0,81,0.00,,---,0.00,VWS V14.01,2013-02-27 02:33:00,
2013-02-26 21:38:00,30.2,25.1,29.83,ENE,59,21.0,26.0,81,0.00,,---,0.00,VWS V14.01,2013-02-27 02:38:00,
2013-02-26 21:43:00,30.4,25.3,29.82,ENE,62,21.0,28.0,81,0.00,,---,0.00,VWS V14.01,2013-02-27 02:43:00,
2013-02-26 21:48:00,30.4,25.3,29.82,NE,51,16.0,24.0,81,0.00,,---,0.00,VWS V14.01,2013-02-27 02:48:00,
2013-02-26 21:53:00,30.3,25.2,29.82,ENE,62,14.0,23.0,81,0.00,,---,0.00,VWS V14.01,2013-02-27 02:53:00,
2013-02-26 21:58:00,30.4,25.3,29.82,NE,45,20.0,25.0,81,0.00,,---,0.00,VWS V14.01,2013-02-27 02:58:00,
2013-02-26 22:03:00,30.4,25.3,29.82,NE,50,12.0,16.0,81,0.00,,---,0.00,VWS V14.01,2013-02-27 03:03:00,
2013-02-26 22:08:00,30.5,25.4,29.81,NE,46,14.0,22.0,81,0.00,,---,0.00,VWS V14.01,2013-02-27 03:08:00,
2013-02-26 22:13:00,30.5,25.4,29.81,ENE,63,14.0,19.0,81,0.00,,---,0.00,VWS V14.01,2013-02-27 03:13:00,
2013-02-26 22:18:00,30.4,25.3,29.80,ENE,58,17.0,19.0,81,0.00,,---,0.00,VWS V14.01,2013-02-27 03:18:00,
2013-02-26 22:23:00,30.4,25.3,29.80,NE,53,15.0,23.0,81,0.00,,---,0.00,VWS V14.01,2013-02-27 03:23:00,
2013-02-26 22:28:00,30.5,25.4,29.79,NE,52,16.0,25.0,81,0.00,,---,0.00,VWS V14.01,2013-02-27 03:28:00,
2013-02-26 22:33:00,30.5,25.4,29.79,NE,55,24.0,24.0,81,0.00,,---,0.00,VWS V14.01,2013-02-27 03:33:00,
2013-02-26 22:38:00,30.5,25.4,29.79,ENE,59,19.0,22.0,81,0.00,,---,0.00,VWS V14.01,2013-02-27 03:38:00,
2013-02-26 22:43:00,30.5,25.4,29.78,ENE,65,18.0,24.0,81,0.00,,---,0.00,VWS V14.01,2013-02-27 03:43:00,
2013-02-26 22:49:00,30.4,25.3,29.78,NE,49,18.0,21.0,81,0.00,,---,0.00,VWS V14.01,2013-02-27 03:49:00,
2013-02-26 22:54:00,30.5,25.4,29.78,ENE,61,14.0,19.0,81,0.00,,---,0.00,VWS V14.01,2013-02-27 03:54:00,
2013-02-26 22:59:00,30.3,25.5,29.78,ENE,61,13.0,17.0,82,0.00,,---,0.00,VWS V14.01,2013-02-27 03:59:00,
2013-02-26 23:04:00,30.3,25.5,29.78,NE,50,16.0,19.0,82,0.00,,---,0.00,VWS V14.01,2013-02-27 04:04:00,
2013-02-26 23:09:00,30.4,25.6,29.77,ENE,63,15.0,23.0,82,0.00,,---,0.00,VWS V14.01,2013-02-27 04:09:00,
2013-02-26 23:14:00,30.4,25.6,29.77,ENE,57,15.0,21.0,82,0.00,,---,0.00,VWS V14.01,2013-02-27 04:14:00,
2013-02-26 23:19:00,30.5,25.7,29.77,ENE,61,18.0,21.0,82,0.00,,---,0.00,VWS V14.01,2013-02-27 04:19:00,
2013-02-26 23:24:00,30.5,25.7,29.77,ENE,60,19.0,21.0,82,0.00,,---,0.00,VWS V14.01,2013-02-27 04:24:00,
2013-02-26 23:29:00,30.5,25.7,29.76,NE,55,15.0,20.0,82,0.00,,---,0.00,VWS V14.01,2013-02-27 04:29:00,
2013-02-26 23:34:00,30.5,25.7,29.76,NE,51,20.0,21.0,82,0.00,,---,0.00,VWS V14.01,2013-02-27 04:34:00,
2013-02-26 23:39:00,30.5,25.7,29.76,NE,49,14.0,22.0,82,0.00,,---,0.00,VWS V14.01,2013-02-27 04:39:00,
2013-02-26 23:44:00,30.6,25.8,29.76,NE,41,19.0,21.0,82,0.00,,---,0.00,VWS V14.01,2013-02-27 04:44:00,
2013-02-26 23:49:00,30.7,25.9,29.76,ENE,57,13.0,21.0,82,0.00,,---,0.00,VWS V14.01,2013-02-27 04:49:00,
2013-02-26 23:54:00,30.7,25.9,29.75,NE,48,16.0,20.0,82,0.00,,---,0.00,VWS V14.01,2013-02-27 04:54:00,
2013-02-26 23:59:00,30.7,25.9,29.75,NE,49,13.0,19.0,82,0.00,,---,0.00,VWS V14.01,2013-02-27 04:59:00,